Year,Month,Day,Hour,Minute,Value (Times are PST for temperature in C)
2013,09,16,00,00,16.60
2013,09,16,00,01,16.60
2013,09,16,00,02,16.60
2013,09,16,00,03,16.60
2013,09,16,00,04,16.60
2013,09,16,00,05,16.60
2013,09,16,00,06,16.60
2013,09,16,00,07,16.60
2013,09,16,00,08,16.60
2013,09,16,00,09,16.60
2013,09,16,00,10,16.60
2013,09,16,00,11,16.60
2013,09,16,00,12,16.60
2013,09,16,00,13,16.60
2013,09,16,00,14,16.50
2013,09,16,00,15,16.50
2013,09,16,00,16,16.50
2013,09,16,00,17,16.50
2013,09,16,00,18,16.50
2013,09,16,00,19,16.40
2013,09,16,00,20,16.40
2013,09,16,00,21,16.40
2013,09,16,00,22,16.40
2013,09,16,00,23,16.40
2013,09,16,00,24,16.40
2013,09,16,00,25,16.40
2013,09,16,00,26,16.40
2013,09,16,00,27,16.40
2013,09,16,00,28,16.40
2013,09,16,00,29,16.40
2013,09,16,00,30,16.40
2013,09,16,00,31,16.40
2013,09,16,00,32,16.30
2013,09,16,00,33,16.40
2013,09,16,00,34,16.30
2013,09,16,00,35,16.30
2013,09,16,00,36,16.30
2013,09,16,00,37,16.30
2013,09,16,00,38,16.30
2013,09,16,00,39,16.30
2013,09,16,00,40,16.30
2013,09,16,00,41,16.30
2013,09,16,00,42,16.30
2013,09,16,00,43,16.30
2013,09,16,00,44,16.30
2013,09,16,00,45,16.30
2013,09,16,00,46,16.30
2013,09,16,00,47,16.20
2013,09,16,00,48,16.20
2013,09,16,00,49,16.20
2013,09,16,00,50,16.20
2013,09,16,00,51,16.20
2013,09,16,00,52,16.20
2013,09,16,00,53,16.20
2013,09,16,00,54,16.20
2013,09,16,00,55,16.20
2013,09,16,00,56,16.20
2013,09,16,00,57,16.20
2013,09,16,00,58,16.20
2013,09,16,00,59,16.20
2013,09,16,01,00,16.20
2013,09,16,01,01,16.20
2013,09,16,01,02,16.20
2013,09,16,01,03,16.20
2013,09,16,01,04,16.20
2013,09,16,01,05,16.20
2013,09,16,01,06,16.20
2013,09,16,01,07,16.20
2013,09,16,01,08,16.20
2013,09,16,01,09,16.20
2013,09,16,01,10,16.20
2013,09,16,01,11,16.20
2013,09,16,01,12,16.20
2013,09,16,01,13,16.20
2013,09,16,01,14,16.20
2013,09,16,01,15,16.20
2013,09,16,01,16,16.20
2013,09,16,01,17,16.20
2013,09,16,01,18,16.20
2013,09,16,01,19,16.20
2013,09,16,01,20,16.20
2013,09,16,01,21,16.20
2013,09,16,01,22,16.20
2013,09,16,01,23,16.20
2013,09,16,01,24,16.20
2013,09,16,01,25,16.20
2013,09,16,01,26,16.10
2013,09,16,01,27,16.10
2013,09,16,01,28,16.10
2013,09,16,01,29,16.10
2013,09,16,01,30,16.10
2013,09,16,01,31,16.10
2013,09,16,01,32,16.10
2013,09,16,01,33,16.10
2013,09,16,01,34,16.10
2013,09,16,01,35,16.10
2013,09,16,01,36,16.10
2013,09,16,01,37,16.10
2013,09,16,01,38,16.10
2013,09,16,01,39,16.10
2013,09,16,01,40,16.10
2013,09,16,01,41,16.10
2013,09,16,01,42,16.10
2013,09,16,01,43,16.10
2013,09,16,01,44,16.10
2013,09,16,01,45,16.10
2013,09,16,01,46,16.10
2013,09,16,01,47,16.10
2013,09,16,01,48,16.10
2013,09,16,01,49,16.10
2013,09,16,01,50,16.10
2013,09,16,01,51,16.10
2013,09,16,01,52,16.10
2013,09,16,01,53,16.10
2013,09,16,01,54,16.10
2013,09,16,01,55,16.10
2013,09,16,01,56,16.10
2013,09,16,01,57,16.10
2013,09,16,01,58,16.10
2013,09,16,01,59,16.10
2013,09,16,02,00,16.10
2013,09,16,02,01,16.10
2013,09,16,02,02,16.10
2013,09,16,02,03,16.10
2013,09,16,02,04,16.10
2013,09,16,02,05,16.10
2013,09,16,02,06,16.10
2013,09,16,02,07,16.10
2013,09,16,02,08,16.10
2013,09,16,02,09,16.10
2013,09,16,02,10,16.10
2013,09,16,02,11,16.00
2013,09,16,02,12,16.00
2013,09,16,02,13,16.00
2013,09,16,02,14,16.00
2013,09,16,02,15,16.00
2013,09,16,02,16,16.00
2013,09,16,02,17,16.00
2013,09,16,02,18,16.00
2013,09,16,02,19,15.90
2013,09,16,02,20,15.90
2013,09,16,02,21,15.90
2013,09,16,02,22,15.90
2013,09,16,02,23,15.90
2013,09,16,02,24,15.90
2013,09,16,02,25,15.80
2013,09,16,02,26,15.80
2013,09,16,02,27,15.80
2013,09,16,02,28,15.80
2013,09,16,02,29,15.80
2013,09,16,02,30,15.80
2013,09,16,02,31,15.80
2013,09,16,02,32,15.80
2013,09,16,02,33,15.80
2013,09,16,02,34,15.80
2013,09,16,02,35,15.80
2013,09,16,02,36,15.80
2013,09,16,02,37,15.80
2013,09,16,02,38,15.80
2013,09,16,02,39,15.80
2013,09,16,02,40,15.80
2013,09,16,02,41,15.80
2013,09,16,02,42,15.80
2013,09,16,02,43,15.80
2013,09,16,02,44,15.80
2013,09,16,02,45,15.70
2013,09,16,02,46,15.70
2013,09,16,02,47,15.70
2013,09,16,02,48,15.70
2013,09,16,02,49,15.70
2013,09,16,02,50,15.70
2013,09,16,02,51,15.70
2013,09,16,02,52,15.70
2013,09,16,02,53,15.60
2013,09,16,02,54,15.60
2013,09,16,02,55,15.60
2013,09,16,02,56,15.60
2013,09,16,02,57,15.60
2013,09,16,02,58,15.60
2013,09,16,02,59,15.60
2013,09,16,03,00,15.50
2013,09,16,03,01,15.50
2013,09,16,03,02,15.50
2013,09,16,03,03,15.50
2013,09,16,03,04,15.40
2013,09,16,03,05,15.40
2013,09,16,03,06,15.40
2013,09,16,03,07,15.40
2013,09,16,03,08,15.40
2013,09,16,03,09,15.40
2013,09,16,03,10,15.40
2013,09,16,03,11,15.40
2013,09,16,03,12,15.40
2013,09,16,03,13,15.40
2013,09,16,03,14,15.40
2013,09,16,03,15,15.40
2013,09,16,03,16,15.40
2013,09,16,03,17,15.40
2013,09,16,03,18,15.40
2013,09,16,03,19,15.30
2013,09,16,03,20,15.30
2013,09,16,03,21,15.30
2013,09,16,03,22,15.30
2013,09,16,03,23,15.30
2013,09,16,03,24,15.30
2013,09,16,03,25,15.30
2013,09,16,03,26,15.30
2013,09,16,03,27,15.30
2013,09,16,03,28,15.30
2013,09,16,03,29,15.30
2013,09,16,03,30,15.30
2013,09,16,03,31,15.30
2013,09,16,03,32,15.30
2013,09,16,03,33,15.30
2013,09,16,03,34,15.30
2013,09,16,03,35,15.20
2013,09,16,03,36,15.20
2013,09,16,03,37,15.20
2013,09,16,03,38,15.20
2013,09,16,03,39,15.20
2013,09,16,03,40,15.20
2013,09,16,03,41,15.10
2013,09,16,03,42,15.10
2013,09,16,03,43,15.10
2013,09,16,03,44,15.10
2013,09,16,03,45,15.10
2013,09,16,03,46,15.10
2013,09,16,03,47,15.10
2013,09,16,03,48,15.10
2013,09,16,03,49,15.10
2013,09,16,03,50,15.10
2013,09,16,03,51,15.10
2013,09,16,03,52,15.10
2013,09,16,03,53,15.10
2013,09,16,03,54,15.10
2013,09,16,03,55,15.10
2013,09,16,03,56,15.10
2013,09,16,03,57,15.10
2013,09,16,03,58,15.10
2013,09,16,03,59,15.10
2013,09,16,04,00,15.10
2013,09,16,04,01,15.10
2013,09,16,04,02,15.10
2013,09,16,04,03,15.10
2013,09,16,04,04,15.10
2013,09,16,04,05,15.10
2013,09,16,04,06,15.10
2013,09,16,04,07,15.10
2013,09,16,04,08,15.10
2013,09,16,04,09,15.00
2013,09,16,04,10,15.00
2013,09,16,04,11,15.00
2013,09,16,04,12,15.00
2013,09,16,04,13,15.00
2013,09,16,04,14,15.00
2013,09,16,04,15,15.00
2013,09,16,04,16,15.00
2013,09,16,04,17,15.00
2013,09,16,04,18,15.00
2013,09,16,04,19,15.00
2013,09,16,04,20,15.00
2013,09,16,04,21,15.00
2013,09,16,04,22,14.90
2013,09,16,04,23,14.90
2013,09,16,04,24,15.00
2013,09,16,04,25,15.00
2013,09,16,04,26,15.00
2013,09,16,04,27,15.00
2013,09,16,04,28,15.00
2013,09,16,04,29,15.00
2013,09,16,04,30,15.00
2013,09,16,04,31,15.00
2013,09,16,04,32,15.00
2013,09,16,04,33,15.00
2013,09,16,04,34,15.00
2013,09,16,04,35,15.00
2013,09,16,04,36,15.00
2013,09,16,04,37,15.00
2013,09,16,04,38,15.00
2013,09,16,04,39,15.00
2013,09,16,04,40,15.00
2013,09,16,04,41,15.00
2013,09,16,04,42,15.00
2013,09,16,04,43,15.00
2013,09,16,04,44,15.00
2013,09,16,04,45,15.00
2013,09,16,04,46,15.10
2013,09,16,04,47,15.10
2013,09,16,04,48,15.10
2013,09,16,04,49,15.10
2013,09,16,04,50,15.10
2013,09,16,04,51,15.10
2013,09,16,04,52,15.10
2013,09,16,04,53,15.10
2013,09,16,04,54,15.10
2013,09,16,04,55,15.10
2013,09,16,04,56,15.10
2013,09,16,04,57,15.10
2013,09,16,04,58,15.10
2013,09,16,04,59,15.10
2013,09,16,05,00,15.10
2013,09,16,05,01,15.10
2013,09,16,05,02,15.10
2013,09,16,05,03,15.10
2013,09,16,05,04,15.10
2013,09,16,05,05,15.10
2013,09,16,05,06,15.10
2013,09,16,05,07,15.10
2013,09,16,05,08,15.10
2013,09,16,05,09,15.10
2013,09,16,05,10,15.10
2013,09,16,05,11,15.10
2013,09,16,05,12,15.10
2013,09,16,05,13,15.10
2013,09,16,05,14,15.10
2013,09,16,05,15,15.10
2013,09,16,05,16,15.20
2013,09,16,05,17,15.20
2013,09,16,05,18,15.20
2013,09,16,05,19,15.20
2013,09,16,05,20,15.20
2013,09,16,05,21,15.20
2013,09,16,05,22,15.20
2013,09,16,05,23,15.20
2013,09,16,05,24,15.20
2013,09,16,05,25,15.20
2013,09,16,05,26,15.20
2013,09,16,05,27,15.20
2013,09,16,05,28,15.20
2013,09,16,05,29,15.20
2013,09,16,05,30,15.20
2013,09,16,05,31,15.20
2013,09,16,05,32,15.20
2013,09,16,05,33,15.20
2013,09,16,05,34,15.20
2013,09,16,05,35,15.20
2013,09,16,05,36,15.10
2013,09,16,05,37,15.10
2013,09,16,05,38,15.10
2013,09,16,05,39,15.10
2013,09,16,05,40,15.10
2013,09,16,05,41,15.10
2013,09,16,05,42,15.10
2013,09,16,05,43,15.10
2013,09,16,05,44,15.00
2013,09,16,05,45,15.00
2013,09,16,05,46,15.00
2013,09,16,05,47,15.00
2013,09,16,05,48,14.90
2013,09,16,05,49,14.90
2013,09,16,05,50,14.90
2013,09,16,05,51,14.90
2013,09,16,05,52,14.90
2013,09,16,05,53,14.80
2013,09,16,05,54,14.80
2013,09,16,05,55,14.80
2013,09,16,05,56,14.80
2013,09,16,05,57,14.80
2013,09,16,05,58,14.80
2013,09,16,05,59,14.80
2013,09,16,06,00,14.80
2013,09,16,06,01,14.80
2013,09,16,06,02,14.80
2013,09,16,06,03,14.80
2013,09,16,06,04,14.80
2013,09,16,06,05,14.80
2013,09,16,06,06,14.80
2013,09,16,06,07,14.80
2013,09,16,06,08,14.80
2013,09,16,06,09,14.80
2013,09,16,06,10,14.80
2013,09,16,06,11,14.80
2013,09,16,06,12,14.80
2013,09,16,06,13,14.80
2013,09,16,06,14,14.80
2013,09,16,06,15,14.80
2013,09,16,06,16,14.80
2013,09,16,06,17,14.70
2013,09,16,06,18,14.70
2013,09,16,06,19,14.70
2013,09,16,06,20,14.70
2013,09,16,06,21,14.80
2013,09,16,06,22,14.80
2013,09,16,06,23,14.80
2013,09,16,06,24,14.80
2013,09,16,06,25,14.80
2013,09,16,06,26,14.80
2013,09,16,06,27,14.80
2013,09,16,06,28,14.80
2013,09,16,06,29,14.80
2013,09,16,06,30,14.80
2013,09,16,06,31,14.80
2013,09,16,06,32,14.80
2013,09,16,06,33,14.80
2013,09,16,06,34,14.80
2013,09,16,06,35,14.80
2013,09,16,06,36,14.80
2013,09,16,06,37,14.70
2013,09,16,06,38,14.70
2013,09,16,06,39,14.70
2013,09,16,06,40,14.70
2013,09,16,06,41,14.60
2013,09,16,06,42,14.60
2013,09,16,06,43,14.60
2013,09,16,06,44,14.50
2013,09,16,06,45,14.50
2013,09,16,06,46,14.40
2013,09,16,06,47,14.40
2013,09,16,06,48,14.40
2013,09,16,06,49,14.40
2013,09,16,06,50,14.40
2013,09,16,06,51,14.40
2013,09,16,06,52,14.40
2013,09,16,06,53,14.40
2013,09,16,06,54,14.40
2013,09,16,06,55,14.40
2013,09,16,06,56,14.40
2013,09,16,06,57,14.30
2013,09,16,06,58,14.30
2013,09,16,06,59,14.30
2013,09,16,07,00,14.30
2013,09,16,07,01,14.30
2013,09,16,07,02,14.30
2013,09,16,07,03,14.30
2013,09,16,07,04,14.30
2013,09,16,07,05,14.30
2013,09,16,07,06,14.30
2013,09,16,07,07,14.30
2013,09,16,07,08,14.30
2013,09,16,07,09,14.30
2013,09,16,07,10,14.30
2013,09,16,07,11,14.30
2013,09,16,07,12,14.30
2013,09,16,07,13,14.30
2013,09,16,07,14,14.30
2013,09,16,07,15,14.30
2013,09,16,07,16,14.30
2013,09,16,07,17,14.30
2013,09,16,07,18,14.30
2013,09,16,07,19,14.30
2013,09,16,07,20,14.30
2013,09,16,07,21,14.30
2013,09,16,07,22,14.30
2013,09,16,07,23,14.40
2013,09,16,07,24,14.40
2013,09,16,07,25,14.40
2013,09,16,07,26,14.40
2013,09,16,07,27,14.50
2013,09,16,07,28,14.50
2013,09,16,07,29,14.50
2013,09,16,07,30,14.60
2013,09,16,07,31,14.60
2013,09,16,07,32,14.60
2013,09,16,07,33,14.60
2013,09,16,07,34,14.60
2013,09,16,07,35,14.60
2013,09,16,07,36,14.60
2013,09,16,07,37,14.60
2013,09,16,07,38,14.60
2013,09,16,07,39,14.60
2013,09,16,07,40,14.60
2013,09,16,07,41,14.60
2013,09,16,07,42,14.60
2013,09,16,07,43,14.60
2013,09,16,07,44,14.60
2013,09,16,07,45,14.60
2013,09,16,07,46,14.60
2013,09,16,07,47,14.60
2013,09,16,07,48,14.60
2013,09,16,07,49,14.60
2013,09,16,07,50,14.60
2013,09,16,07,51,14.60
2013,09,16,07,52,14.60
2013,09,16,07,53,14.60
2013,09,16,07,54,14.60
2013,09,16,07,55,14.60
2013,09,16,07,56,14.60
2013,09,16,07,57,14.60
2013,09,16,07,58,14.60
2013,09,16,07,59,14.60
2013,09,16,08,00,14.70
2013,09,16,08,01,14.70
2013,09,16,08,02,14.70
2013,09,16,08,03,14.70
2013,09,16,08,04,14.70
2013,09,16,08,05,14.70
2013,09,16,08,06,14.80
2013,09,16,08,07,14.80
2013,09,16,08,08,14.80
2013,09,16,08,09,14.80
2013,09,16,08,10,14.80
2013,09,16,08,11,14.80
2013,09,16,08,12,14.80
2013,09,16,08,13,14.80
2013,09,16,08,14,14.80
2013,09,16,08,15,14.80
2013,09,16,08,16,14.80
2013,09,16,08,17,14.80
2013,09,16,08,18,14.80
2013,09,16,08,19,14.80
2013,09,16,08,20,14.80
2013,09,16,08,21,14.80
2013,09,16,08,22,14.80
2013,09,16,08,23,14.80
2013,09,16,08,24,14.70
2013,09,16,08,25,14.70
2013,09,16,08,26,14.70
2013,09,16,08,27,14.70
2013,09,16,08,28,14.70
2013,09,16,08,29,14.70
2013,09,16,08,30,14.70
2013,09,16,08,31,14.70
2013,09,16,08,32,14.70
2013,09,16,08,33,14.60
2013,09,16,08,34,14.60
2013,09,16,08,35,14.60
2013,09,16,08,36,14.60
2013,09,16,08,37,14.60
2013,09,16,08,38,14.60
2013,09,16,08,39,14.60
2013,09,16,08,40,14.60
2013,09,16,08,41,14.60
2013,09,16,08,42,14.60
2013,09,16,08,43,14.50
2013,09,16,08,44,14.50
2013,09,16,08,45,14.50
2013,09,16,08,46,14.50
2013,09,16,08,47,14.50
2013,09,16,08,48,14.50
2013,09,16,08,49,14.50
2013,09,16,08,50,14.50
2013,09,16,08,51,14.50
2013,09,16,08,52,14.50
2013,09,16,08,53,14.50
2013,09,16,08,54,14.50
2013,09,16,08,55,14.40
2013,09,16,08,56,14.50
2013,09,16,08,57,14.40
2013,09,16,08,58,14.50
2013,09,16,08,59,14.40
2013,09,16,09,00,14.40
2013,09,16,09,01,14.40
2013,09,16,09,02,14.40
2013,09,16,09,03,14.40
2013,09,16,09,04,14.40
2013,09,16,09,05,14.40
2013,09,16,09,06,14.40
2013,09,16,09,07,14.40
2013,09,16,09,08,14.30
2013,09,16,09,09,14.30
2013,09,16,09,10,14.30
2013,09,16,09,11,14.30
2013,09,16,09,12,14.30
2013,09,16,09,13,14.20
2013,09,16,09,14,14.20
2013,09,16,09,15,14.20
2013,09,16,09,16,14.20
2013,09,16,09,17,14.20
2013,09,16,09,18,14.20
2013,09,16,09,19,14.20
2013,09,16,09,20,14.10
2013,09,16,09,21,14.10
2013,09,16,09,22,14.10
2013,09,16,09,23,14.10
2013,09,16,09,24,14.10
2013,09,16,09,25,14.10
2013,09,16,09,26,14.00
2013,09,16,09,27,14.00
2013,09,16,09,28,14.00
2013,09,16,09,29,14.00
2013,09,16,09,30,14.00
2013,09,16,09,31,14.00
2013,09,16,09,32,13.90
2013,09,16,09,33,13.90
2013,09,16,09,34,13.90
2013,09,16,09,35,13.90
2013,09,16,09,36,13.90
2013,09,16,09,37,13.90
2013,09,16,09,38,13.90
2013,09,16,09,39,13.90
2013,09,16,09,40,13.90
2013,09,16,09,41,13.90
2013,09,16,09,42,13.90
2013,09,16,09,43,13.90
2013,09,16,09,44,13.90
2013,09,16,09,45,13.80
2013,09,16,09,46,13.80
2013,09,16,09,47,13.80
2013,09,16,09,48,13.80
2013,09,16,09,49,13.80
2013,09,16,09,50,13.90
2013,09,16,09,51,13.90
2013,09,16,09,52,13.90
2013,09,16,09,53,13.90
2013,09,16,09,54,13.90
2013,09,16,09,55,13.90
2013,09,16,09,56,13.90
2013,09,16,09,57,13.90
2013,09,16,09,58,13.90
2013,09,16,09,59,13.90
2013,09,16,10,00,14.00
2013,09,16,10,01,14.00
2013,09,16,10,02,14.00
2013,09,16,10,03,14.00
2013,09,16,10,04,14.00
2013,09,16,10,05,14.00
2013,09,16,10,06,14.00
2013,09,16,10,07,14.00
2013,09,16,10,08,14.00
2013,09,16,10,09,14.00
2013,09,16,10,10,14.10
2013,09,16,10,11,14.10
2013,09,16,10,12,14.10
2013,09,16,10,13,14.10
2013,09,16,10,14,14.10
2013,09,16,10,15,14.00
2013,09,16,10,16,14.00
2013,09,16,10,17,14.00
2013,09,16,10,18,14.00
2013,09,16,10,19,14.00
2013,09,16,10,20,14.10
2013,09,16,10,21,14.10
2013,09,16,10,22,14.10
2013,09,16,10,23,14.10
2013,09,16,10,24,14.10
2013,09,16,10,25,14.10
2013,09,16,10,26,14.10
2013,09,16,10,27,14.10
2013,09,16,10,28,14.10
2013,09,16,10,29,14.10
2013,09,16,10,30,14.10
2013,09,16,10,31,14.10
2013,09,16,10,32,14.10
2013,09,16,10,33,14.10
2013,09,16,10,34,14.10
2013,09,16,10,35,14.20
2013,09,16,10,36,14.20
2013,09,16,10,37,14.20
2013,09,16,10,38,14.20
2013,09,16,10,39,14.20
2013,09,16,10,40,14.20
2013,09,16,10,41,14.20
2013,09,16,10,42,14.20
2013,09,16,10,43,14.20
2013,09,16,10,44,14.20
2013,09,16,10,45,14.20
2013,09,16,10,46,14.20
2013,09,16,10,47,14.30
2013,09,16,10,48,14.30
2013,09,16,10,49,14.30
2013,09,16,10,50,14.30
2013,09,16,10,51,14.30
2013,09,16,10,52,14.30
2013,09,16,10,53,14.40
2013,09,16,10,54,14.40
2013,09,16,10,55,14.40
2013,09,16,10,56,14.40
2013,09,16,10,57,14.40
2013,09,16,10,58,14.40
2013,09,16,10,59,14.40
2013,09,16,11,00,14.30
2013,09,16,11,01,14.30
2013,09,16,11,02,14.30
2013,09,16,11,03,14.30
2013,09,16,11,04,14.30
2013,09,16,11,05,14.30
2013,09,16,11,06,14.30
2013,09,16,11,07,14.30
2013,09,16,11,08,14.30
2013,09,16,11,09,14.30
2013,09,16,11,10,14.30
2013,09,16,11,11,14.30
2013,09,16,11,12,14.30
2013,09,16,11,13,14.30
2013,09,16,11,14,14.30
2013,09,16,11,15,14.30
2013,09,16,11,16,14.30
2013,09,16,11,17,14.30
2013,09,16,11,18,14.40
2013,09,16,11,19,14.40
2013,09,16,11,20,14.40
2013,09,16,11,21,14.40
2013,09,16,11,22,14.40
2013,09,16,11,23,14.40
2013,09,16,11,24,14.50
2013,09,16,11,25,14.50
2013,09,16,11,26,14.50
2013,09,16,11,27,14.50
2013,09,16,11,28,14.60
2013,09,16,11,29,14.60
2013,09,16,11,30,14.60
2013,09,16,11,31,14.60
2013,09,16,11,32,14.70
2013,09,16,11,33,14.70
2013,09,16,11,34,14.70
2013,09,16,11,35,14.70
2013,09,16,11,36,14.70
2013,09,16,11,37,14.70
2013,09,16,11,38,14.70
2013,09,16,11,39,14.70
2013,09,16,11,40,14.80
2013,09,16,11,41,14.80
2013,09,16,11,42,14.80
2013,09,16,11,43,14.90
2013,09,16,11,44,14.90
2013,09,16,11,45,14.90
2013,09,16,11,46,15.00
2013,09,16,11,47,15.00
2013,09,16,11,48,15.10
2013,09,16,11,49,15.10
2013,09,16,11,50,15.20
2013,09,16,11,51,15.20
2013,09,16,11,52,15.30
2013,09,16,11,53,15.30
2013,09,16,11,54,15.30
2013,09,16,11,55,15.30
2013,09,16,11,56,15.40
2013,09,16,11,57,15.40
2013,09,16,11,58,15.40
2013,09,16,11,59,15.50
2013,09,16,12,00,15.50
2013,09,16,12,01,15.50
2013,09,16,12,02,15.60
2013,09,16,12,03,15.60
2013,09,16,12,04,15.60
2013,09,16,12,05,15.60
2013,09,16,12,06,15.70
2013,09,16,12,07,15.70
2013,09,16,12,08,15.60
2013,09,16,12,09,15.60
2013,09,16,12,10,15.60
2013,09,16,12,11,15.60
2013,09,16,12,12,15.60
2013,09,16,12,13,15.60
2013,09,16,12,14,15.60
2013,09,16,12,15,15.60
2013,09,16,12,16,15.60
2013,09,16,12,17,15.60
2013,09,16,12,18,15.60
2013,09,16,12,19,15.60
2013,09,16,12,20,15.70
2013,09,16,12,21,15.70
2013,09,16,12,22,15.70
2013,09,16,12,23,15.70
2013,09,16,12,24,15.70
2013,09,16,12,25,15.70
2013,09,16,12,26,15.80
2013,09,16,12,27,15.80
2013,09,16,12,28,15.80
2013,09,16,12,29,15.80
2013,09,16,12,30,15.80
2013,09,16,12,31,15.80
2013,09,16,12,32,15.90
2013,09,16,12,33,15.90
2013,09,16,12,34,15.90
2013,09,16,12,35,15.90
2013,09,16,12,36,15.90
2013,09,16,12,37,15.90
2013,09,16,12,38,15.90
2013,09,16,12,39,15.80
2013,09,16,12,40,15.80
2013,09,16,12,41,15.90
2013,09,16,12,42,15.90
2013,09,16,12,43,15.80
2013,09,16,12,44,15.90
2013,09,16,12,45,15.90
2013,09,16,12,46,15.90
2013,09,16,12,47,15.90
2013,09,16,12,48,15.90
2013,09,16,12,49,16.00
2013,09,16,12,50,16.00
2013,09,16,12,51,16.00
2013,09,16,12,52,16.10
2013,09,16,12,53,16.10
2013,09,16,12,54,16.10
2013,09,16,12,55,16.10
2013,09,16,12,56,16.10
2013,09,16,12,57,16.10
2013,09,16,12,58,16.20
2013,09,16,12,59,16.20
2013,09,16,13,00,16.20
2013,09,16,13,01,16.30
2013,09,16,13,02,16.30
2013,09,16,13,03,16.30
2013,09,16,13,04,16.30
2013,09,16,13,05,16.30
2013,09,16,13,06,16.30
2013,09,16,13,07,16.30
2013,09,16,13,08,16.40
2013,09,16,13,09,16.40
2013,09,16,13,10,16.50
2013,09,16,13,11,16.50
2013,09,16,13,12,16.60
2013,09,16,13,13,16.60
2013,09,16,13,14,16.70
2013,09,16,13,15,16.70
2013,09,16,13,16,16.80
2013,09,16,13,17,16.90
2013,09,16,13,18,16.90
2013,09,16,13,19,17.00
2013,09,16,13,20,17.10
2013,09,16,13,21,17.20
2013,09,16,13,22,17.30
2013,09,16,13,23,17.30
2013,09,16,13,24,17.30
2013,09,16,13,25,17.30
2013,09,16,13,26,17.30
2013,09,16,13,27,17.30
2013,09,16,13,28,17.20
2013,09,16,13,29,17.20
2013,09,16,13,30,17.10
2013,09,16,13,31,17.10
2013,09,16,13,32,17.00
2013,09,16,13,33,17.00
2013,09,16,13,34,16.90
2013,09,16,13,35,16.90
2013,09,16,13,36,16.80
2013,09,16,13,37,16.80
2013,09,16,13,38,16.70
2013,09,16,13,39,16.70
2013,09,16,13,40,16.70
2013,09,16,13,41,16.70
2013,09,16,13,42,16.70
2013,09,16,13,43,16.70
2013,09,16,13,44,16.70
2013,09,16,13,45,16.70
2013,09,16,13,46,16.70
2013,09,16,13,47,16.70
2013,09,16,13,48,16.70
2013,09,16,13,49,16.70
2013,09,16,13,50,16.70
2013,09,16,13,51,16.70
2013,09,16,13,52,16.70
2013,09,16,13,53,16.60
2013,09,16,13,54,16.60
2013,09,16,13,55,16.60
2013,09,16,13,56,16.60
2013,09,16,13,57,16.60
2013,09,16,13,58,16.70
2013,09,16,13,59,16.70
2013,09,16,14,00,16.70
2013,09,16,14,01,16.70
2013,09,16,14,02,16.70
2013,09,16,14,03,16.70
2013,09,16,14,04,16.80
2013,09,16,14,05,16.80
2013,09,16,14,06,16.80
2013,09,16,14,07,16.90
2013,09,16,14,08,16.90
2013,09,16,14,09,16.90
2013,09,16,14,10,17.00
2013,09,16,14,11,17.10
2013,09,16,14,12,17.10
2013,09,16,14,13,17.20
2013,09,16,14,14,17.20
2013,09,16,14,15,17.20
2013,09,16,14,16,17.30
2013,09,16,14,17,17.30
2013,09,16,14,18,17.30
2013,09,16,14,19,17.40
2013,09,16,14,20,17.30
2013,09,16,14,21,17.40
2013,09,16,14,22,17.50
2013,09,16,14,23,17.60
2013,09,16,14,24,17.70
2013,09,16,14,25,17.80
2013,09,16,14,26,17.90
2013,09,16,14,27,18.00
2013,09,16,14,28,18.10
2013,09,16,14,29,18.10
2013,09,16,14,30,18.20
2013,09,16,14,31,18.30
2013,09,16,14,32,18.30
2013,09,16,14,33,18.30
2013,09,16,14,34,18.20
2013,09,16,14,35,18.10
2013,09,16,14,36,18.10
2013,09,16,14,37,18.00
2013,09,16,14,38,17.90
2013,09,16,14,39,17.90
2013,09,16,14,40,17.80
2013,09,16,14,41,17.80
2013,09,16,14,42,17.80
2013,09,16,14,43,17.80
2013,09,16,14,44,17.80
2013,09,16,14,45,17.80
2013,09,16,14,46,17.80
2013,09,16,14,47,17.80
2013,09,16,14,48,17.90
2013,09,16,14,49,17.90
2013,09,16,14,50,18.00
2013,09,16,14,51,18.10
2013,09,16,14,52,18.20
2013,09,16,14,53,18.40
2013,09,16,14,54,18.40
2013,09,16,14,55,18.50
2013,09,16,14,56,18.50
2013,09,16,14,57,18.50
2013,09,16,14,58,18.40
2013,09,16,14,59,18.30
2013,09,16,15,00,18.30
2013,09,16,15,01,18.20
2013,09,16,15,02,18.10
2013,09,16,15,03,18.10
2013,09,16,15,04,18.10
2013,09,16,15,05,18.10
2013,09,16,15,06,18.10
2013,09,16,15,07,18.20
2013,09,16,15,08,18.20
2013,09,16,15,09,18.30
2013,09,16,15,10,18.40
2013,09,16,15,11,18.50
2013,09,16,15,12,18.60
2013,09,16,15,13,18.60
2013,09,16,15,14,18.70
2013,09,16,15,15,18.70
2013,09,16,15,16,18.80
2013,09,16,15,17,18.80
2013,09,16,15,18,18.80
2013,09,16,15,19,18.90
2013,09,16,15,20,18.90
2013,09,16,15,21,18.90
2013,09,16,15,22,19.00
2013,09,16,15,23,19.00
2013,09,16,15,24,19.10
2013,09,16,15,25,19.10
2013,09,16,15,26,19.10
2013,09,16,15,27,19.10
2013,09,16,15,28,19.00
2013,09,16,15,29,18.90
2013,09,16,15,30,18.80
2013,09,16,15,31,18.80
2013,09,16,15,32,18.70
2013,09,16,15,33,18.60
2013,09,16,15,34,18.50
2013,09,16,15,35,18.50
2013,09,16,15,36,18.40
2013,09,16,15,37,18.40
2013,09,16,15,38,18.40
2013,09,16,15,39,18.40
2013,09,16,15,40,18.40
2013,09,16,15,41,18.40
2013,09,16,15,42,18.40
2013,09,16,15,43,18.40
2013,09,16,15,44,18.40
2013,09,16,15,45,18.40
2013,09,16,15,46,18.40
2013,09,16,15,47,18.40
2013,09,16,15,48,18.30
2013,09,16,15,49,18.30
2013,09,16,15,50,18.40
2013,09,16,15,51,18.40
2013,09,16,15,52,18.40
2013,09,16,15,53,18.50
2013,09,16,15,54,18.50
2013,09,16,15,55,18.60
2013,09,16,15,56,18.70
2013,09,16,15,57,18.80
2013,09,16,15,58,18.90
2013,09,16,15,59,18.90
2013,09,16,16,00,19.00
2013,09,16,16,01,19.00
2013,09,16,16,02,19.00
2013,09,16,16,03,19.00
2013,09,16,16,04,19.00
2013,09,16,16,05,19.00
2013,09,16,16,06,19.00
2013,09,16,16,07,18.90
2013,09,16,16,08,18.90
2013,09,16,16,09,19.00
2013,09,16,16,10,19.00
2013,09,16,16,11,19.10
2013,09,16,16,12,19.10
2013,09,16,16,13,19.20
2013,09,16,16,14,19.20
2013,09,16,16,15,19.20
2013,09,16,16,16,19.30
2013,09,16,16,17,19.30
2013,09,16,16,18,19.30
2013,09,16,16,19,19.30
2013,09,16,16,20,19.30
2013,09,16,16,21,19.30
2013,09,16,16,22,19.30
2013,09,16,16,23,19.30
2013,09,16,16,24,19.30
2013,09,16,16,25,19.30
2013,09,16,16,26,19.30
2013,09,16,16,27,19.40
2013,09,16,16,28,19.40
2013,09,16,16,29,19.50
2013,09,16,16,30,19.60
2013,09,16,16,31,19.70
2013,09,16,16,32,19.70
2013,09,16,16,33,19.70
2013,09,16,16,34,19.70
2013,09,16,16,35,19.70
2013,09,16,16,36,19.60
2013,09,16,16,37,19.60
2013,09,16,16,38,19.50
2013,09,16,16,39,19.50
2013,09,16,16,40,19.40
2013,09,16,16,41,19.30
2013,09,16,16,42,19.30
2013,09,16,16,43,19.20
2013,09,16,16,44,19.10
2013,09,16,16,45,19.10
2013,09,16,16,46,19.10
2013,09,16,16,47,19.10
2013,09,16,16,48,19.10
2013,09,16,16,49,19.10
2013,09,16,16,50,19.10
2013,09,16,16,51,19.20
2013,09,16,16,52,19.20
2013,09,16,16,53,19.30
2013,09,16,16,54,19.30
2013,09,16,16,55,19.30
2013,09,16,16,56,19.30
2013,09,16,16,57,19.30
2013,09,16,16,58,19.30
2013,09,16,16,59,19.30
2013,09,16,17,00,19.40
2013,09,16,17,01,19.50
2013,09,16,17,02,19.50
2013,09,16,17,03,19.40
2013,09,16,17,04,19.30
2013,09,16,17,05,19.20
2013,09,16,17,06,19.10
2013,09,16,17,07,19.00
2013,09,16,17,08,19.00
2013,09,16,17,09,18.90
2013,09,16,17,10,18.80
2013,09,16,17,11,18.80
2013,09,16,17,12,18.80
2013,09,16,17,13,18.70
2013,09,16,17,14,18.70
2013,09,16,17,15,18.70
2013,09,16,17,16,18.60
2013,09,16,17,17,18.60
2013,09,16,17,18,18.50
2013,09,16,17,19,18.50